Torna al catalogo

STARLINK-30485

AttivoComunicazioniVLEO
NORAD 57920·PAYLOAD·🇺🇸 United States

Lanciato Sep 24, 2023 da Cape Canaveral Space Force Station

Loading…

Prossimi Passaggi (prossime 24 ore)

TLE

AggiornatoSource: CelesTrak SupGP

Epoca: Sep 15, 2026, 02:30 UTC

1 57920C 23147H   26258.10465278  .00017902  00000+0  64861-3 0  2580
2 57920  43.0021 335.5505 0001853 259.7691 182.5000 15.27559036    17

Traccia STARLINK-30485 in tempo reale con AllMySat

Download on the App Store